PST,Max TemperatureF,Mean TemperatureF,Min TemperatureF,Max Dew PointF,MeanDew PointF,Min DewpointF,Max Humidity, Mean Humidity, Min Humidity, Max Sea Level PressureIn, Mean Sea Level PressureIn, Min Sea Level PressureIn, Max VisibilityMiles, Mean VisibilityMiles, Min VisibilityMiles, Max Wind SpeedMPH, Mean Wind SpeedMPH, Max Gust SpeedMPH,PrecipitationIn, CloudCover, Events, WindDirDegrees
2012-12-1,49,46,43,40,37,32,89,72,54,29.81,29.72,29.53,10,10,10,22,13,30,0.03,7,Rain,119
2012-12-2,49,41,33,43,33,22,89,64,39,30.02,29.59,29.30,10,9,4,23,9,29,0.34,4,Rain,151
2012-12-3,48,42,36,31,28,26,76,59,42,30.17,30.11,30.02,10,10,10,22,12,26,0.00,2,,122
2012-12-4,47,42,36,41,37,28,92,76,60,30.07,30.01,29.92,10,10,9,25,16,33,0.17,8,Rain,99
2012-12-5,51,38,25,41,32,24,92,79,66,30.20,30.09,29.90,10,10,10,22,10,37,0.03,5,Rain,292
2012-12-6,39,31,22,30,25,21,100,80,59,30.19,30.16,30.12,10,10,7,8,2,10,0.00,4,,51
2012-12-7,40,31,22,31,26,21,96,74,52,30.16,30.05,29.95,10,8,1,29,5,35,T,6,Snow,295
2012-12-8,31,28,25,27,25,18,92,75,58,30.32,30.15,30.03,10,5,0,25,5,32,0.02,8,Fog-Snow,288
2012-12-9,29,23,17,25,23,16,96,87,78,30.47,30.36,30.28,10,6,2,13,4,15,0.12,7,Snow,99
2012-12-10,34,26,17,30,21,18,96,86,75,30.39,30.24,30.11,10,4,0,9,1,10,0.05,6,Fog-Rain,203
2012-12-11,32,26,20,29,22,16,92,85,78,30.16,29.90,29.64,10,3,0,10,2,13,0.00,7,Fog,264
2012-12-12,39,28,17,32,26,14,100,88,76,30.01,29.77,29.58,10,3,0,17,3,20,0.04,8,Fog-Snow,3
2012-12-13,29,19,9,23,11,3,100,87,73,30.09,29.95,29.81,10,3,0,6,1,6,0.04,3,Fog,248
2012-12-14,28,21,13,27,17,9,92,85,77,29.98,29.86,29.76,10,4,0,6,1,6,T,7,Fog-Snow,299
2012-12-15,33,26,19,27,23,16,92,76,59,29.97,29.81,29.68,10,8,1,18,9,23,T,6,Snow,122
2012-12-16,36,25,14,31,21,10,100,87,74,29.91,29.73,29.37,10,5,0,28,9,35,0.03,7,Fog-Rain-Snow,100
2012-12-17,43,30,16,32,23,10,91,66,41,29.96,29.64,29.36,10,10,10,35,11,47,0.01,4,Rain,182
2012-12-18,28,18,8,16,11,6,91,74,57,30.11,30.03,29.96,10,10,10,13,5,14,0.00,2,,166
2012-12-19,29,16,2,18,12,1,92,75,58,30.26,30.21,30.10,10,10,10,28,12,33,0.00,5,,103
2012-12-20,36,32,27,17,15,11,63,53,43,30.17,30.03,29.94,10,10,10,28,18,35,0.00,6,,97
2012-12-21,36,33,30,25,18,14,72,58,43,29.98,29.93,29.88,10,10,10,25,14,30,0.00,7,,93
2012-12-22,38,33,27,30,23,18,85,66,47,29.90,29.78,29.69,10,10,2,26,11,31,T,5,Snow,133
2012-12-23,34,28,21,29,25,19,100,82,64,29.99,29.78,29.59,10,7,0,22,11,29,T,5,Fog-Snow,108
2012-12-24,37,25,13,24,18,11,96,74,52,30.26,30.09,29.84,10,10,10,12,5,13,0.02,3,,131
2012-12-25,27,20,12,24,20,12,88,82,75,30.23,30.00,29.81,10,6,1,23,14,29,T,6,Snow,100
2012-12-26,30,26,21,27,25,19,100,93,85,29.97,29.81,29.73,10,5,2,14,2,17,0.03,8,Snow,135
2012-12-27,32,20,8,25,12,1,100,84,68,30.26,30.05,29.88,10,4,0,8,1,9,0.04,5,Fog,145
2012-12-28,24,14,4,16,11,1,96,85,73,30.34,30.29,30.15,10,10,10,14,4,18,0.00,0,,160
2012-12-29,24,16,8,17,13,6,88,83,77,30.29,30.18,30.05,10,7,0,13,3,15,T,4,Fog-Snow,157
2012-12-30,24,14,4,19,11,1,92,83,74,30.36,30.23,30.08,10,6,0,6,1,7,0.00,8,Fog,348
2012-12-31,25,15,5,17,13,4,91,80,68,30.50,30.36,30.23,10,10,9,10,3,12,0.00,7,,227